This is the latest recevied weather packets stored in our database for station/object KB1WCR. If no packets are shown the sender has not sent any weather packets the latest 1 day(s).
| Time | Temp. | Humidity | Pressure | Rain* | Wind** | Luminosity | Snow |
|---|---|---|---|---|---|---|---|
| 1778063311 | 11.67° C | 92% | 1009.1 hPa | 0 mm | - | 33 W/m² | - |
| 1778063009 | 11.11° C | 93% | 1009 hPa | 0 mm | - | 43 W/m² | - |
| 1778062706 | 11.11° C | 93% | 1008.9 hPa | 0 mm | - | 39 W/m² | - |
| 1778062100 | 11.11° C | 93% | 1009.3 hPa | 0 mm | - | 33 W/m² | - |
| 1778061193 | 10.56° C | 94% | 1008.8 hPa | 0 mm | - | 23 W/m² | - |
| 1778060286 | 10.56° C | 93% | 1008.9 hPa | 0 mm | - | 8 W/m² | - |
| 1778058773 | 11.11° C | 92% | 1009 hPa | 0 mm | - | 0 W/m² | - |
| 1778058471 | 11.11° C | 92% | 1009 hPa | 0 mm | - | 0 W/m² | - |
| 1778057864 | 11.11° C | 91% | 1008.7 hPa | 0 mm | - | 0 W/m² | - |
| 1778057257 | 11.67° C | 91% | 1008.8 hPa | 0 mm | - | 0 W/m² | - |
| 1778055741 | 12.22° C | 89% | 1008.5 hPa | 0 mm | - | 0 W/m² | - |
| 1778055439 | 12.22° C | 90% | 1008.4 hPa | 0 mm | - | 0 W/m² | - |
| 1778055136 | 11.67° C | 90% | 1008.6 hPa | 0 mm | - | 0 W/m² | - |
| 1778054834 | 12.22° C | 90% | 1008.7 hPa | 0 mm | - | 0 W/m² | - |
| 1778054530 | 12.22° C | 89% | 1008.7 hPa | 0 mm | - | 0 W/m² | - |
| 1778054228 | 12.22° C | 89% | 1008.5 hPa | 0 mm | - | 0 W/m² | - |
| 1778053924 | 12.22° C | 89% | 1008.6 hPa | 0 mm | - | 0 W/m² | - |
| 1778053017 | 12.78° C | 88% | 1008.7 hPa | 0 mm | - | 0 W/m² | - |
| 1778052714 | 12.22° C | 88% | 1008.7 hPa | 0 mm | - | 0 W/m² | - |
| 1778051806 | 12.78° C | 87% | 1008.5 hPa | 0 mm | - | 0 W/m² | - |
| 1778050596 | 12.78° C | 87% | 1008.2 hPa | 0 mm | - | 0 W/m² | - |
| 1778050292 | 12.78° C | 87% | 1008 hPa | 0 mm | - | 0 W/m² | - |
| 1778049684 | 12.22° C | 89% | 1008.3 hPa | 0 mm | - | 0 W/m² | - |
| 1778049079 | 11.67° C | 90% | 1008 hPa | 0 mm | - | 0 W/m² | - |
| 1778048778 | 11.67° C | 91% | 1007.9 hPa | 0 mm | - | 0 W/m² | - |
* Rain latest hour (hover to see other rain measurements)
** Current wind speed in m/s (hover to see current wind gust speed)